datetime,min air temp
2016-12-28,11.82
2016-12-29,9.61
2016-12-30,8.13
2016-12-31,5.12
2017-01-01,9.1
2017-01-02,0.8
2017-01-03,11.76
2017-01-04,-12.44
2017-01-05,-22.17
2017-01-06,-23.1
2017-01-07,3.2800000000000002
2017-01-08,32.44
2017-01-09,26.34
2017-01-10,32.8
2017-01-11,21.11
2017-01-12,18.05
2017-01-13,8.19
2017-01-14,13.12
2017-01-15,10.1
2017-01-16,11.39
2017-01-17,14.72
2017-01-18,34.64
2017-01-19,25.6
2017-01-20,25.11
2017-01-21,23.14
2017-01-22,27.27
2017-01-23,11.27
2017-01-24,16.14
2017-01-25,18.97
2017-01-26,20.43
2017-01-27,12.38
2017-01-28,12.75
2017-01-29,12.87
2017-01-30,11.09
2017-01-31,23.21
2017-02-01,20.62
2017-02-02,28.44
2017-02-03,33.84
2017-02-04,33.59
2017-02-05,27.45
2017-02-06,32.0
2017-02-07,32.0
2017-02-08,34.51
2017-02-09,40.49
2017-02-10,26.65
2017-02-11,16.69
2017-02-12,15.77
2017-02-13,23.82
2017-02-14,16.63
2017-02-15,37.35
2017-02-16,34.27
2017-02-17,30.59
2017-02-18,33.17
2017-02-19,27.95
2017-02-20,33.04
2017-02-21,27.21
2017-02-22,24.99
2017-02-23,19.03
2017-02-24,7.27
2017-02-25,15.09
2017-02-26,9.12
2017-02-27,8.5
2017-02-28,18.22
2017-03-01,11.7
2017-03-02,11.09
2017-03-03,18.72
2017-03-04,26.47
2017-03-05,14.59
2017-03-06,18.34
2017-03-07,25.73
2017-03-08,32.24
2017-03-09,34.64
2017-03-10,30.27
2017-03-11,24.31
2017-03-12,22.09
2017-03-13,21.85
2017-03-14,26.16
2017-03-15,41.35
2017-03-16,25.11
2017-03-17,29.3
2017-03-18,42.89
2017-03-19,36.12
2017-03-20,41.59
2017-03-21,35.5
2017-03-22,32.49
2017-03-23,21.3
2017-03-24,28.49
2017-03-25,20.8
2017-03-26,25.17
2017-03-27,29.24
2017-03-28,28.0
2017-03-29,31.2
2017-03-30,33.79
2017-03-31,28.5
2017-04-01,24.19
2017-04-02,35.75
2017-04-03,27.15
2017-04-04,28.68
2017-04-05,42.76
2017-04-06,36.42
2017-04-07,32.0
2017-04-08,28.01
2017-04-09,21.23
2017-04-10,32.98
2017-04-11,34.28
2017-04-12,32.0
2017-04-13,28.93
2017-04-14,22.83
2017-04-15,20.14
2017-04-16,31.02
2017-04-17,28.19
2017-04-18,34.95
2017-04-19,32.37
2017-04-20,-13.52
2017-04-21,21.42
2017-04-22,36.86
2017-04-23,32.56
2017-04-24,35.5
2017-04-25,24.87
2017-04-26,39.56
2017-04-27,32.44
2017-04-28,29.61
2017-04-29,23.39
2017-04-30,38.09
2017-05-01,30.29
2017-05-02,45.72
2017-05-03,38.64
2017-05-04,42.58
2017-05-05,38.82
2017-05-06,38.22
2017-05-07,33.73
2017-05-08,31.32
2017-05-09,37.35
2017-05-10,33.04
2017-05-11,40.05
2017-05-12,33.48
2017-05-13,30.53
2017-05-14,24.62
2017-05-15,33.29
2017-05-16,35.39
2017-05-17,31.09
2017-05-18,29.49
2017-05-19,32.8
2017-05-20,41.41
2017-05-21,36.49
2017-05-22,40.06
2017-05-23,42.03
2017-05-24,50.15
2017-05-25,30.71
2017-05-26,36.25
2017-05-27,36.85
2017-05-28,38.1
2017-05-29,45.54
2017-05-30,41.53
2017-05-31,49.11
2017-06-01,51.39
2017-06-02,42.64
2017-06-03,46.21
2017-06-04,44.43
2017-06-05,32.81
2017-06-06,42.46
2017-06-07,43.38
2017-06-08,44.92
2017-06-09,36.49
2017-06-10,31.15
2017-06-11,37.05
2017-06-12,42.03
2017-06-13,36.99
2017-06-14,32.56
2017-06-15,43.32
2017-06-16,46.64
2017-06-17,52.92
2017-06-18,49.66
2017-06-19,51.08
2017-06-20,54.21
2017-06-21,52.99
2017-06-22,47.07
2017-06-23,45.41
2017-06-24,44.06
2017-06-25,49.85
2017-06-26,47.69
2017-06-27,43.01
2017-06-28,47.81
2017-06-29,41.61
2017-06-30,42.78
2017-07-01,52.24
2017-07-02,46.4
2017-07-03,49.42
2017-07-04,52.0
2017-07-05,44.19
2017-07-06,46.16
2017-07-07,45.36
2017-07-08,46.71
2017-07-09,50.22
2017-07-10,51.02
2017-07-11,50.22
2017-07-12,49.97
2017-07-13,49.17
2017-07-14,49.6
2017-07-15,54.53
2017-07-16,48.87
2017-07-17,46.53
2017-07-18,43.94
2017-07-19,45.72
2017-07-20,47.94
2017-07-21,45.67
2017-07-22,46.28
2017-07-23,50.83
2017-07-24,53.6
2017-07-25,52.56
2017-07-26,46.28
2017-07-27,48.07
2017-07-28,49.29
2017-07-29,51.39
2017-07-30,49.42
2017-07-31,50.15
2017-08-01,54.83
2017-08-02,52.49
2017-08-03,54.22
2017-08-04,56.32
2017-08-05,48.43
2017-08-06,51.57
2017-08-07,55.14
2017-08-08,47.88
2017-08-09,49.72
2017-08-10,45.85
2017-08-11,45.3
2017-08-12,52.62
2017-08-13,45.73
2017-08-14,49.97
2017-08-15,41.36
2017-08-16,41.73
2017-08-17,46.78
2017-08-18,41.67
2017-08-19,45.92
2017-08-20,43.95
2017-08-21,43.89
2017-08-22,47.58
2017-08-23,58.58
2017-08-24,43.95
2017-08-25,43.52
2017-08-26,40.75
2017-08-27,44.32
2017-08-28,48.68
2017-08-29,46.46
2017-08-30,40.62
2017-08-31,39.95
2017-09-01,42.04
2017-09-02,43.21
2017-09-03,50.9
2017-09-04,52.07
2017-09-05,49.36
2017-09-06,57.42
2017-09-07,49.54
2017-09-08,42.78
2017-09-09,47.64
2017-09-10,41.55
2017-09-11,44.38
2017-09-12,52.62
2017-09-13,44.99
2017-09-14,43.39
2017-09-15,30.84
2017-09-16,32.07
2017-09-17,34.84
2017-09-18,44.38
2017-09-19,42.04
2017-09-20,39.33
2017-09-21,35.08
2017-09-22,23.15
2017-09-23,23.03
2017-09-24,26.42
2017-09-25,29.44
2017-09-26,32.5
2017-09-27,31.09
2017-09-28,29.61
2017-09-29,39.21
2017-09-30,42.1
2017-10-01,35.63
2017-10-02,22.66
2017-10-03,26.65
2017-10-04,21.0
2017-10-05,21.56
2017-10-06,24.94
2017-10-07,30.47
2017-10-08,26.96
2017-10-09,19.1
2017-10-10,21.3
2017-10-11,26.66
2017-10-12,16.75
2017-10-13,31.09
2017-10-14,17.8
2017-10-15,16.94
2017-10-16,19.96
2017-10-17,24.63
2017-10-18,23.83
2017-10-19,32.68
2017-10-20,30.16
2017-10-21,27.46
2017-10-22,33.06
2017-10-23,34.16
2017-10-24,27.89
2017-10-25,26.17
2017-10-26,29.12
2017-10-27,28.14
2017-10-28,28.27
2017-10-29,26.05
2017-10-30,30.66
2017-10-31,19.4
2017-11-01,19.71
2017-11-02,25.68
2017-11-03,32.2
2017-11-04,27.82
2017-11-05,27.03
2017-11-06,17.99
2017-11-07,16.08
2017-11-08,36.14
2017-11-09,33.24
2017-11-10,29.86
2017-11-11,21.37
2017-11-12,30.72
2017-11-13,33.3
2017-11-14,19.77
2017-11-15,26.54
2017-11-16,32.44
2017-11-17,17.68
2017-11-18,12.26
2017-11-19,13.18
2017-11-20,38.47
2017-11-21,38.1
2017-11-22,34.4
2017-11-23,39.94
2017-11-24,28.25
2017-11-25,29.98
2017-11-26,35.7
2017-11-27,22.91
2017-11-28,18.66
2017-11-29,21.01
2017-11-30,16.63
2017-12-01,18.36
2017-12-02,19.65
2017-12-03,18.6
2017-12-04,13.12
2017-12-05,10.54
2017-12-06,11.22
2017-12-07,8.38
2017-12-08,10.41
2017-12-09,10.04
2017-12-10,7.09
2017-12-11,6.72
2017-12-12,7.03
2017-12-13,10.29
2017-12-14,8.32
2017-12-15,15.21
2017-12-16,13.06
2017-12-17,12.13
2017-12-18,14.78
2017-12-19,22.29
2017-12-20,12.74
2017-12-21,1.3
2017-12-22,13.0
2017-12-23,13.92
2017-12-24,26.91
2017-12-25,20.87
2017-12-26,15.77
2017-12-27,22.29
2017-12-28,14.41
2017-12-29,13.06
2017-12-30,28.5
2017-12-31,19.33
2018-01-01,14.91
2018-01-02,16.94
2018-01-03,23.34
2018-01-04,33.91
2018-01-05,39.88
2018-01-06,21.49
2018-01-07,18.11
2018-01-08,23.58
2018-01-09,34.4
2018-01-10,26.1
2018-01-11,23.09
2018-01-12,20.32
2018-01-13,18.66
2018-01-14,24.32
2018-01-15,24.88
2018-01-16,22.59
2018-01-17,28.55
2018-01-18,32.44
2018-01-19,19.09
2018-01-20,19.09
2018-01-21,17.25
2018-01-22,22.96
2018-01-23,25.37
2018-01-24,26.9
2018-01-25,17.92
2018-01-26,17.24
2018-01-27,27.07
2018-01-28,20.63
2018-01-29,24.08
2018-01-30,25.42
2018-01-31,18.9
2018-02-01,28.0
2018-02-02,22.72
2018-02-03,24.68
2018-02-04,23.34
2018-02-05,25.17
2018-02-06,17.55
2018-02-07,16.02
2018-02-08,19.7
2018-02-09,18.16
2018-02-10,14.6
2018-02-11,8.99
2018-02-12,11.09
2018-02-13,4.88
2018-02-14,11.58
2018-02-15,8.5
2018-02-16,7.64
2018-02-17,14.6
2018-02-18,20.81
2018-02-19,16.38
2018-02-20,7.57
2018-02-21,11.76
2018-02-22,21.61
2018-02-23,12.75
2018-02-24,24.08
2018-02-25,17.49
2018-02-26,20.14
2018-02-27,3.2
2018-02-28,13.86
2018-03-01,24.87
2018-03-02,1.8399999999999999
2018-03-03,11.27
2018-03-04,7.76
2018-03-05,7.65
2018-03-06,14.35
2018-03-07,27.03
2018-03-08,30.77
2018-03-09,28.56
2018-03-10,22.23
2018-03-11,19.65
2018-03-12,18.65
2018-03-13,35.76
2018-03-14,21.36
2018-03-15,22.72
2018-03-16,23.89
2018-03-17,26.23
2018-03-18,16.75
2018-03-19,17.86
2018-03-20,31.58
2018-03-21,34.53
2018-03-22,28.12
2018-03-23,22.23
2018-03-24,8.56
2018-03-25,17.92
2018-03-26,16.14
2018-03-27,22.97
2018-03-28,27.09
2018-03-29,23.28
2018-03-30,21.86
2018-03-31,34.96
2018-04-01,28.62
2018-04-02,20.0
2018-04-03,13.86
2018-04-04,40.44
2018-04-05,37.54
2018-04-06,40.19
2018-04-07,37.48
2018-04-08,32.49
2018-04-09,20.87
2018-04-10,36.0
2018-04-11,30.96
2018-04-12,26.11
2018-04-13,22.41
2018-04-14,24.56
2018-04-15,32.26
2018-04-16,22.36
2018-04-17,19.15
2018-04-18,28.02
2018-04-19,33.36
2018-04-20,22.66
2018-04-21,35.63
2018-04-22,31.57
2018-04-23,27.7
2018-04-24,23.95
2018-04-25,33.6
2018-04-26,31.82
2018-04-27,39.57
2018-04-28,32.94
2018-04-29,34.84
2018-04-30,33.12
2018-05-01,29.67
2018-05-02,29.84
2018-05-03,31.32
2018-05-04,36.68
2018-05-05,40.38
2018-05-06,44.99
2018-05-07,37.48
2018-05-08,38.47
2018-05-09,46.59
2018-05-10,41.79
2018-05-11,38.59
2018-05-12,47.45
2018-05-13,33.61
2018-05-14,39.21
2018-05-15,38.04
2018-05-16,42.78
2018-05-17,48.31
2018-05-18,41.12
2018-05-19,40.99
2018-05-20,45.23
2018-05-21,38.16
2018-05-22,41.18
2018-05-23,50.28
2018-05-24,41.67
2018-05-25,48.56
2018-05-26,43.64
2018-05-27,39.33
2018-05-28,48.86
2018-05-29,45.12
2018-05-30,45.86
2018-05-31,43.52
2018-06-01,31.45
2018-06-02,36.5
2018-06-03,42.9
2018-06-04,41.98
2018-06-05,37.98
2018-06-06,40.19
2018-06-07,44.38
2018-06-08,37.11
2018-06-09,37.18
2018-06-10,29.37
2018-06-11,37.3
2018-06-12,35.51
2018-06-13,47.08
2018-06-14,42.16
2018-06-15,39.82
2018-06-16,35.94
2018-06-17,48.93
2018-06-18,42.04
2018-06-19,38.96
2018-06-20,45.36
2018-06-21,42.04
2018-06-22,44.81
2018-06-23,40.31
2018-06-24,40.99
2018-06-25,47.2
2018-06-26,40.44
2018-06-27,45.55
2018-06-28,45.55
2018-06-29,41.67
2018-06-30,43.51
2018-07-01,47.45
2018-07-02,50.77
2018-07-03,45.73
2018-07-04,40.93
2018-07-05,40.93
2018-07-06,49.06
2018-07-07,40.62
2018-07-08,43.7
2018-07-09,42.22
2018-07-10,43.76
2018-07-11,46.1
2018-07-12,50.03
2018-07-13,52.68
2018-07-14,56.31
2018-07-15,53.48
2018-07-16,47.83
2018-07-17,51.45
2018-07-18,49.54
2018-07-19,50.41
2018-07-20,47.46
2018-07-21,49.06
2018-07-22,46.41
2018-07-23,51.94
2018-07-24,53.61
2018-07-25,54.72
2018-07-26,53.43
2018-07-27,48.51
2018-07-28,46.84
2018-07-29,46.04
2018-07-30,49.73
2018-07-31,52.38
2018-08-01,48.32
2018-08-02,48.88
2018-08-03,43.58
2018-08-04,40.01
2018-08-05,39.08
2018-08-06,46.97
2018-08-07,49.37
2018-08-08,47.77
2018-08-09,50.35
2018-08-10,50.72
2018-08-11,51.28
2018-08-12,42.22
2018-08-13,47.15
2018-08-14,45.06
2018-08-15,56.68
2018-08-16,46.41
2018-08-17,43.83
2018-08-18,43.76
2018-08-19,43.76
2018-08-20,41.85
2018-08-21,45.86
2018-08-22,41.79
2018-08-23,42.47
2018-08-24,42.29
2018-08-25,39.7
2018-08-26,38.1
2018-08-27,46.6
2018-08-28,38.41
2018-08-29,40.19
2018-08-30,41.24
2018-08-31,43.52
2018-09-01,38.78
2018-09-02,38.59
2018-09-03,41.79
2018-09-04,41.61
2018-09-05,41.12
2018-09-06,41.55
2018-09-07,42.35
2018-09-08,37.98
2018-09-09,34.47
2018-09-10,40.01
2018-09-11,38.53
2018-09-12,35.09
2018-09-13,36.13
2018-09-14,27.95
2018-09-15,35.08
2018-09-16,29.01
2018-09-17,27.03
2018-09-18,30.73
2018-09-19,35.26
2018-09-20,27.28
2018-09-21,28.51
2018-09-22,37.73
2018-09-23,41.92
2018-09-24,27.47
2018-09-25,28.45
2018-09-26,27.65
2018-09-27,31.9
2018-09-28,31.89
2018-09-29,42.59
2018-09-30,38.65
2018-10-01,34.35
2018-10-02,46.91
2018-10-03,41.67
2018-10-04,34.1
2018-10-05,25.37
2018-10-06,39.51
2018-10-07,29.31
2018-10-08,46.04
2018-10-09,36.56
2018-10-10,29.98
2018-10-11,24.45
2018-10-12,20.51
2018-10-13,23.4
2018-10-14,18.91
2018-10-15,15.77
2018-10-16,19.53
2018-10-17,24.51
2018-10-18,24.45
2018-10-19,22.72
2018-10-20,23.09
2018-10-21,22.05
2018-10-22,21.81
2018-10-23,21.12
2018-10-24,29.86
2018-10-25,23.58
2018-10-26,29.74
2018-10-27,31.03
2018-10-28,34.71
2018-10-29,29.31
2018-10-30,20.26
2018-10-31,26.29
2018-11-01,35.39
2018-11-02,27.96
2018-11-03,24.14
2018-11-04,22.91
2018-11-05,20.26
2018-11-06,16.14
2018-11-07,10.97
2018-11-08,10.66
2018-11-09,5.49
2018-11-10,12.2
2018-11-11,8.08
2018-11-12,9.8
2018-11-13,15.09
2018-11-14,10.28
2018-11-15,19.96
2018-11-16,14.84
2018-11-17,17.12
2018-11-18,11.82
2018-11-19,11.03
2018-11-20,7.64
2018-11-21,28.49
2018-11-22,24.45
2018-11-23,30.11
2018-11-24,27.52
2018-11-25,23.65
2018-11-26,23.59
2018-11-27,30.05
2018-11-28,24.88
2018-11-29,35.88
2018-11-30,30.22
2018-12-01,29.55
2018-12-02,15.71
2018-12-03,10.36
2018-12-04,14.84
2018-12-05,16.75
2018-12-06,11.52
2018-12-07,9.55
2018-12-08,19.4
2018-12-09,18.78
2018-12-10,18.6
2018-12-11,24.58
2018-12-12,23.4
2018-12-13,18.91
2018-12-14,21.67
2018-12-15,20.2
2018-12-16,37.17
2018-12-17,28.39
2018-12-18,33.79
2018-12-19,23.64
2018-12-20,20.75
2018-12-21,16.69
2018-12-22,11.03
2018-12-23,30.54
2018-12-24,30.05
2018-12-25,17.99
2018-12-26,15.15
2018-12-27,22.11
2018-12-28,11.83
2018-12-29,17.19
2018-12-30,24.83
2018-12-31,10.78
2019-01-01,5.93
2019-01-02,10.97
2019-01-03,13.86
2019-01-04,20.2
2019-01-05,29.55
2019-01-06,26.36
2019-01-07,12.87
2019-01-08,35.09
2019-01-09,30.48
2019-01-10,24.45
2019-01-11,29.68
2019-01-12,20.33
2019-01-13,14.17
2019-01-14,10.66
2019-01-15,25.12
2019-01-16,25.86
2019-01-17,24.69
2019-01-18,26.23
2019-01-19,35.94
2019-01-20,32.8
2019-01-21,23.21
2019-01-22,21.43
2019-01-23,20.87
2019-01-24,19.89
2019-01-25,21.86
2019-01-26,18.11
2019-01-27,19.65
2019-01-28,17.74
2019-01-29,22.6
2019-01-30,15.71
2019-01-31,15.83
2019-02-01,31.72
2019-02-02,33.42
2019-02-03,25.0
2019-02-04,15.15
2019-02-05,18.6
2019-02-06,5.6
2019-02-07,1.12
2019-02-08,18.54
2019-02-09,9.91
2019-02-10,4.19
2019-02-11,13.74
2019-02-12,20.21
2019-02-13,29.61
2019-02-14,30.59
2019-02-15,24.69
2019-02-16,22.72
2019-02-17,15.95
2019-02-18,11.64
2019-02-19,9.12
2019-02-20,24.75
2019-02-21,11.21
2019-02-22,3.52
2019-02-23,17.06
2019-02-24,31.71
2019-02-25,32.13
2019-02-26,30.9
2019-02-27,27.77
2019-02-28,26.85
2019-03-01,24.88
2019-03-02,24.45
2019-03-03,23.95
2019-03-04,21.74
2019-03-05,20.75
2019-03-06,33.3
2019-03-07,28.38
2019-03-08,23.89
2019-03-09,25.0
2019-03-10,24.88
2019-03-11,12.26
2019-03-12,22.11
2019-03-13,21.86
2019-03-14,12.87
2019-03-15,15.89
2019-03-16,13.24
2019-03-17,18.9
2019-03-18,19.89
2019-03-19,24.82
2019-03-20,37.3
2019-03-21,22.6
2019-03-22,21.8
2019-03-23,31.34
2019-03-24,23.58
2019-03-25,32.99
2019-03-26,27.65
2019-03-27,32.19
2019-03-28,29.61
2019-03-29,22.11
2019-03-30,18.91
2019-03-31,19.65
2019-04-01,40.56
2019-04-02,40.87
2019-04-03,35.88
2019-04-04,37.42
2019-04-05,32.68
2019-04-06,36.62
2019-04-07,44.44
2019-04-08,40.07
2019-04-09,33.8
2019-04-10,31.16
2019-04-11,35.76
2019-04-12,31.84
2019-04-13,22.84
2019-04-14,33.29
2019-04-15,32.32
2019-04-16,29.99
2019-04-17,27.89
2019-04-18,31.46
2019-04-19,36.68
2019-04-20,40.38
2019-04-21,34.65
2019-04-22,31.95
2019-04-23,40.99
2019-04-24,42.66
2019-04-25,39.58
2019-04-26,45.12
2019-04-27,31.58
2019-04-28,34.22
2019-04-29,24.94
2019-04-30,28.75
2019-05-01,22.55
2019-05-02,26.23
2019-05-03,28.45
2019-05-04,30.35
2019-05-05,35.51
2019-05-06,35.02
2019-05-07,41.18
2019-05-08,35.88
2019-05-09,47.76
2019-05-10,34.78
2019-05-11,34.1
2019-05-12,39.51
2019-05-13,40.81
2019-05-14,44.99
2019-05-15,47.09
2019-05-16,39.82
2019-05-17,39.7
2019-05-18,32.75
2019-05-19,36.31
2019-05-20,41.55
2019-05-21,36.99
2019-05-22,39.58
2019-05-23,46.9
2019-05-24,42.59
2019-05-25,33.06
2019-05-26,32.07
2019-05-27,47.77
2019-05-28,45.12
2019-05-29,43.64
2019-05-30,38.53
2019-05-31,43.52
2019-06-01,46.23
2019-06-02,45.61
2019-06-03,47.4
2019-06-04,46.66
2019-06-05,44.26
2019-06-06,42.96
2019-06-07,37.05
2019-06-08,29.13
2019-06-09,32.02
2019-06-10,36.68
2019-06-11,45.18
2019-06-12,49.49
2019-06-13,51.71
2019-06-14,48.69
2019-06-15,46.47
2019-06-16,47.15
2019-06-17,52.32
2019-06-18,47.03
2019-06-19,44.75
2019-06-20,43.33
2019-06-21,29.25
2019-06-22,37.97
2019-06-23,45.12
2019-06-24,40.75
2019-06-25,44.81
2019-06-26,38.59
2019-06-27,38.9
2019-06-28,37.11
2019-06-29,38.22
2019-06-30,42.9
2019-07-01,44.32
2019-07-02,45.43
2019-07-03,41.79
2019-07-04,43.83
2019-07-05,46.1
2019-07-06,48.14
2019-07-07,44.38
2019-07-08,45.67
2019-07-09,47.15
2019-07-10,50.11
2019-07-11,48.44
2019-07-12,51.89
2019-07-13,52.63
2019-07-14,51.22
2019-07-15,51.03
2019-07-16,48.94
2019-07-17,49.62
2019-07-18,49.92
2019-07-19,47.83
2019-07-20,50.91
2019-07-21,49.8
2019-07-22,50.97
2019-07-23,46.35
2019-07-24,46.97
2019-07-25,44.01
2019-07-26,52.32
2019-07-27,50.54
2019-07-28,47.58
2019-07-29,50.17
2019-07-30,47.4
2019-07-31,46.78
2019-08-01,46.72
2019-08-02,45.43
2019-08-03,47.21
2019-08-04,49.74
2019-08-05,49.92
2019-08-06,54.3
2019-08-07,46.23
2019-08-08,45.37
2019-08-09,46.97
2019-08-10,47.27
2019-08-11,39.27
2019-08-12,41.12
2019-08-13,42.66
2019-08-14,46.6
2019-08-15,49.43
2019-08-16,45.67
2019-08-17,43.09
2019-08-18,43.83
2019-08-19,44.01
2019-08-20,43.21
2019-08-21,45.98
2019-08-22,46.04
2019-08-23,38.53
2019-08-24,45.86
2019-08-25,46.35
2019-08-26,42.78
2019-08-27,44.26
2019-08-28,47.52
2019-08-29,49.06
2019-08-30,48.38
2019-08-31,45.67
2019-09-01,40.38
2019-09-02,44.87
2019-09-03,42.35
2019-09-04,36.62
2019-09-05,52.82
2019-09-06,43.02
2019-09-07,43.52
2019-09-08,44.13
2019-09-09,35.51
2019-09-10,39.02
2019-09-11,31.77
2019-09-12,34.92
2019-09-13,38.29
2019-09-14,38.53
2019-09-15,43.27
2019-09-16,36.99
2019-09-17,28.14
2019-09-18,45.37
2019-09-19,45.0
2019-09-20,35.46
2019-09-21,31.96
2019-09-22,36.13
2019-09-23,34.55
2019-09-24,36.75
2019-09-25,40.68
2019-09-26,34.79
2019-09-27,43.09
2019-09-28,33.91
2019-09-29,29.81
2019-09-30,34.55
2019-10-01,24.88
2019-10-02,20.7
2019-10-03,35.57
2019-10-04,29.01
2019-10-05,23.1
2019-10-06,19.96
2019-10-07,23.09
2019-10-08,32.92
2019-10-09,23.4
2019-10-10,12.87
2019-10-11,14.66
2019-10-12,17.43
2019-10-13,25.07
2019-10-14,20.33
2019-10-15,22.54
2019-10-16,24.03
2019-10-17,31.27
2019-10-18,33.17
2019-10-19,35.33
2019-10-20,26.85
2019-10-21,26.36
2019-10-22,26.29
2019-10-23,24.88
2019-10-24,22.97
2019-10-25,24.94
2019-10-26,32.5
2019-10-27,18.05
2019-10-28,10.29
2019-10-29,17.43
2019-10-30,7.96
2019-10-31,11.41
2019-11-01,15.77
2019-11-02,14.41
2019-11-03,14.72
2019-11-04,19.22
2019-11-05,16.82
2019-11-06,21.98
2019-11-07,17.37
2019-11-08,17.99
2019-11-09,18.85
2019-11-10,25.12
2019-11-11,27.96
2019-11-12,22.48
2019-11-13,18.48
2019-11-14,27.96
2019-11-15,30.35
2019-11-16,25.37
2019-11-17,24.69
2019-11-18,21.55
2019-11-19,33.97
2019-11-20,31.59
2019-11-21,14.29
2019-11-22,11.58
2019-11-23,13.61
2019-11-24,14.29
2019-11-25,26.97
2019-11-26,20.45
2019-11-27,17.19
2019-11-28,5.3
2019-11-29,7.16
2019-11-30,6.97
2019-12-01,28.39
2019-12-02,25.19
2019-12-03,24.32
2019-12-04,22.17
2019-12-05,27.65
2019-12-06,33.8
2019-12-07,32.75
2019-12-08,23.64
2019-12-09,27.1
2019-12-10,28.2
2019-12-11,26.85
2019-12-12,35.26
2019-12-13,33.74
2019-12-14,24.51
2019-12-15,17.86
2019-12-16,14.48
2019-12-17,21.19
2019-12-18,24.45
2019-12-19,32.75
2019-12-20,31.72
2019-12-21,32.93
2019-12-22,27.03
2019-12-23,13.74
2019-12-24,12.57
2019-12-25,24.51
2019-12-26,10.72
2019-12-27,9.8
2019-12-28,13.18
2019-12-29,21.3
2019-12-30,17.92
2019-12-31,18.79
2020-01-01,32.82
2020-01-02,23.03
2020-01-03,17.06
2020-01-04,30.85
2020-01-05,19.64
2020-01-06,20.39
2020-01-07,16.94
2020-01-08,28.27
2020-01-09,20.81
2020-01-10,15.89
2020-01-11,28.88
2020-01-12,29.44
2020-01-13,20.08
2020-01-14,16.82
2020-01-15,8.5
2020-01-16,23.58
2020-01-17,3.58
2020-01-18,19.21
2020-01-19,11.89
2020-01-20,29.5
2020-01-21,26.73
2020-01-22,26.85
2020-01-23,26.79
2020-01-24,31.51
2020-01-25,33.3
2020-01-26,33.79
2020-01-27,30.36
2020-01-28,28.39
2020-01-29,22.17
2020-01-30,30.18
2020-01-31,24.2
2020-02-01,24.45
2020-02-02,22.79
2020-02-03,9.92
2020-02-04,8.63
2020-02-05,25.62
2020-02-06,22.6
2020-02-07,15.15
2020-02-08,28.39
2020-02-09,17.31
2020-02-10,11.83
2020-02-11,15.03
2020-02-12,15.09
2020-02-13,9.68
2020-02-14,22.23
2020-02-15,22.66
2020-02-16,29.19
2020-02-17,17.99
2020-02-18,8.38
2020-02-19,8.33
2020-02-20,22.73
2020-02-21,15.09
2020-02-22,15.65
2020-02-23,18.17
2020-02-24,15.65
2020-02-25,13.43
2020-02-26,12.13
2020-02-27,13.61
2020-02-28,15.52
2020-02-29,18.29
2020-03-01,14.03
2020-03-02,15.34
2020-03-03,20.07
2020-03-04,16.63
2020-03-05,14.78
2020-03-06,27.9
2020-03-07,31.28
2020-03-08,30.36
2020-03-09,23.09
2020-03-10,13.74
2020-03-11,17.12
2020-03-12,15.34
2020-03-13,11.02
2020-03-14,23.28
2020-03-15,19.28
2020-03-16,21.99
2020-03-17,29.37
2020-03-18,24.81
2020-03-19,13.37
2020-03-20,17.99
2020-03-21,22.29
2020-03-22,18.91
2020-03-23,33.49
2020-03-24,25.55
2020-03-25,18.73
2020-03-26,12.5
2020-03-27,20.45
2020-03-28,33.85
2020-03-29,28.14
2020-03-30,37.91
2020-03-31,31.64
2020-04-01,25.99
2020-04-02,17.12
2020-04-03,21.62
2020-04-04,16.82
2020-04-05,28.02
2020-04-06,22.48
2020-04-07,23.58
2020-04-08,24.38
2020-04-09,27.28
2020-04-10,28.08
2020-04-11,36.99
2020-04-12,28.07
2020-04-13,22.78
2020-04-14,14.78
2020-04-15,40.56
2020-04-16,29.01
2020-04-17,20.38
2020-04-18,29.68
2020-04-19,32.06
2020-04-20,22.17
2020-04-21,36.25
2020-04-22,36.25
2020-04-23,42.04
2020-04-24,36.13
2020-04-25,34.9
2020-04-26,39.45
2020-04-27,44.87
2020-04-28,33.43
2020-04-29,46.47
2020-04-30,41.61
2020-05-01,31.04
2020-05-02,35.83
2020-05-03,27.47
2020-05-04,23.9
2020-05-05,34.18
2020-05-06,40.56
2020-05-07,26.54
2020-05-08,29.37
2020-05-09,40.32
2020-05-10,42.9
2020-05-11,42.78
2020-05-12,39.39
2020-05-13,37.43
2020-05-14,39.21
2020-05-15,33.37
2020-05-16,43.89
2020-05-17,43.58
2020-05-18,36.62
2020-05-19,38.23
2020-05-20,40.5
2020-05-21,33.44
2020-05-22,33.37
2020-05-23,28.14
2020-05-24,33.07
2020-05-25,43.02
2020-05-26,48.88
2020-05-27,48.14
2020-05-28,52.08
2020-05-29,50.91
2020-05-30,48.2
2020-05-31,45.8
2020-06-01,50.48
2020-06-02,40.99
2020-06-03,45.92
2020-06-04,49.06
2020-06-05,44.32
2020-06-06,36.5
2020-06-07,33.69
2020-06-08,33.93
2020-06-09,37.0
2020-06-10,38.96
2020-06-11,46.91
2020-06-12,49.68
2020-06-13,44.13
2020-06-14,42.84
2020-06-15,46.29
2020-06-16,40.31
2020-06-17,32.39
2020-06-18,38.6
2020-06-19,41.24
2020-06-20,52.76
2020-06-21,52.63
2020-06-22,45.98
2020-06-23,49.62
2020-06-24,58.3
2020-06-25,47.64
2020-06-26,48.2
2020-06-27,52.02
2020-06-28,46.41
2020-06-29,43.83
2020-06-30,44.32
2020-07-01,40.64
2020-07-02,33.93
2020-07-03,42.35
2020-07-04,44.56
2020-07-05,41.12
2020-07-06,40.68
2020-07-07,43.15
2020-07-08,38.61
2020-07-09,44.01
2020-07-10,44.69
2020-07-11,43.46
2020-07-12,44.63
2020-07-13,48.32
2020-07-14,42.29
2020-07-15,45.12
2020-07-16,48.2
2020-07-17,49.98
2020-07-18,48.08
2020-07-19,49.0
2020-07-20,50.05
2020-07-21,50.72
2020-07-22,51.65
2020-07-23,51.89
2020-07-24,45.92
2020-07-25,43.76
2020-07-26,45.98
2020-07-27,56.94
2020-07-28,48.2
2020-07-29,49.43
2020-07-30,42.96
2020-07-31,42.59
2020-08-01,45.98
2020-08-02,47.71
2020-08-03,45.49
2020-08-04,48.2
2020-08-05,51.96
2020-08-06,54.85
2020-08-07,38.79
2020-08-08,39.7
2020-08-09,47.71
2020-08-10,44.63
2020-08-11,48.94
2020-08-12,42.35
2020-08-13,42.66
2020-08-14,42.66
2020-08-15,50.29
2020-08-16,52.39
2020-08-17,51.65
2020-08-18,57.25
2020-08-19,51.03
2020-08-20,45.18
2020-08-21,43.7
2020-08-22,44.63
2020-08-23,44.32
2020-08-24,56.21
2020-08-25,46.23
2020-08-26,44.32
2020-08-27,46.66
2020-08-28,41.61
2020-08-29,44.44
2020-08-30,39.89
2020-08-31,42.79
2020-09-01,40.56
2020-09-02,45.98
2020-09-03,47.09
2020-09-04,46.23
2020-09-05,43.83
2020-09-06,44.2
2020-09-07,47.09
2020-09-08,42.16
2020-09-09,33.44
2020-09-10,34.43
2020-09-11,36.03
2020-09-12,37.32
2020-09-13,35.17
2020-09-14,45.3
2020-09-15,31.35
2020-09-16,32.83
2020-09-17,32.64
2020-09-18,51.34
2020-09-19,39.28
2020-09-20,30.36
2020-09-21,31.53
2020-09-22,36.82
2020-09-23,35.46
2020-09-24,38.59
2020-09-25,31.22
2020-09-26,42.53
2020-09-27,31.04
2020-09-28,30.61
2020-09-29,31.65
2020-09-30,34.92
2020-10-01,33.44
2020-10-02,34.92
2020-10-03,35.47
2020-10-04,33.5
2020-10-05,29.93
2020-10-06,27.9
2020-10-07,28.51
2020-10-08,25.44
2020-10-09,25.87
2020-10-10,41.3
2020-10-11,32.76
2020-10-12,36.28
2020-10-13,31.1
2020-10-14,35.94
2020-10-15,27.41
2020-10-16,24.77
2020-10-17,33.44
2020-10-18,28.88
2020-10-19,30.05
2020-10-20,29.13
2020-10-21,29.25
2020-10-22,26.73
2020-10-23,19.1
2020-10-24,33.75
2020-10-25,22.73
2020-10-26,7.59
2020-10-27,14.66
2020-10-28,15.46
2020-10-29,16.75
2020-10-30,17.43
2020-10-31,22.55
2020-11-01,19.53
2020-11-02,20.14
2020-11-03,19.47
2020-11-04,24.09
2020-11-05,24.94
2020-11-06,34.3
2020-11-07,29.13
2020-11-08,25.43
2020-11-09,24.83
2020-11-10,26.42
2020-11-11,12.38
2020-11-12,8.51
2020-11-13,32.89
2020-11-14,25.19
2020-11-15,36.27
2020-11-16,33.26